{"data":{"norad_id":58104,"epoch":"2026-05-25T02:03:12.695040Z","epoch_age_seconds":64690,"freshness":"FRESH","line1":"1 58104U 23161H   26145.08556360  .00001039  00000+0  47203-4 0  9994","line2":"2 58104  53.1597 170.8080 0001101  80.1206 279.9919 15.30198633146112","mean_motion":15.30198633,"eccentricity":0.0001101,"inclination_deg":53.1597,"raan_deg":170.808,"arg_perigee_deg":80.1206,"mean_anomaly_deg":279.9919,"bstar":4.7203e-5,"rev_number":14611,"period_min":94.105429775273,"perigee_km":474.46459652573,"apogee_km":475.97370555019,"semimajor_km":6853.356151038,"source":"CELESTRAK","updated_at":"2026-05-25T13:38:18.527426Z"}}